This is the latest recevied weather packets stored in our database for station/object W6MAF. If no packets are shown the sender has not sent any weather packets the latest 10 day(s).
| Time | Temp. | Humidity | Pressure | Rain* | Wind** | Luminosity | Snow |
|---|---|---|---|---|---|---|---|
| 1777783547 | 17.78° C | 12% | - | 0 mm | 5.36 m/s, 183° | - | - |
| 1777783249 | 17.78° C | 11% | - | 0 mm | 4.47 m/s, 183° | - | - |
| 1777782952 | 17.78° C | 11% | - | 0 mm | 4.92 m/s, 170° | - | - |
| 1777782654 | 18.33° C | 10% | - | 0 mm | 5.36 m/s, 184° | - | - |
| 1777782356 | 18.33° C | 9% | - | 0 mm | 4.92 m/s, 194° | - | - |
| 1777782055 | 18.33° C | 9% | - | 0 mm | 4.47 m/s, 156° | - | - |
| 1777781758 | 18.33° C | 8% | - | 0 mm | 4.47 m/s, 179° | - | - |
| 1777781460 | 18.33° C | 8% | - | 0 mm | 4.92 m/s, 191° | - | - |
| 1777781162 | 18.33° C | 7% | - | 0 mm | 5.81 m/s, 197° | - | - |
| 1777780864 | 18.33° C | 7% | - | 0 mm | 4.92 m/s, 181° | - | - |
| 1777780567 | 18.33° C | 7% | - | 0 mm | 4.47 m/s, 183° | - | - |
| 1777780266 | 18.89° C | 7% | - | 0 mm | 4.02 m/s, 204° | - | - |
| 1777779968 | 18.89° C | 7% | - | 0 mm | 4.92 m/s, 188° | - | - |
| 1777779670 | 18.89° C | 7% | - | 0 mm | 4.92 m/s, 218° | - | - |
| 1777779373 | 18.89° C | 8% | - | 0 mm | 5.36 m/s, 210° | - | - |
| 1777779075 | 18.89° C | 8% | - | 0 mm | 5.36 m/s, 204° | - | - |
| 1777778777 | 19.44° C | 7% | - | 0 mm | 5.36 m/s, 200° | - | - |
| 1777778476 | 19.44° C | 7% | - | 0 mm | 6.26 m/s, 210° | - | - |
| 1777778179 | 19.44° C | 7% | - | 0 mm | 6.26 m/s, 198° | - | - |
| 1777777881 | 19.44° C | 7% | - | 0 mm | 5.36 m/s, 198° | - | - |
| 1777777583 | 20° C | 6% | - | 0 mm | 5.81 m/s, 197° | - | - |
| 1777777285 | 20° C | 7% | - | 0 mm | 6.26 m/s, 217° | - | - |
| 1777776988 | 20° C | 6% | - | 0 mm | 5.36 m/s, 228° | - | - |
| 1777776687 | 20° C | 6% | - | 0 mm | 6.26 m/s, 212° | - | - |
| 1777776389 | 20° C | 6% | - | 0 mm | 5.36 m/s, 226° | - | - |
* Rain latest hour (hover to see other rain measurements)
** Current wind speed in m/s (hover to see current wind gust speed)